When you browse on this site, cookies collect data to enhance your experience and personalize the content and advertising you see.
Visit our Privacy Policy to learn more. By continuing to use the site, you agree to this use of cookies and data.
  • In Österreich
  • Länderverzeichnis
  • Für 7 Tage
  • Wassertemperatur
  • Satellitenkarten
  • Wetterkarte
  • News
  • Widgets
  • user-avatar
    Anmelden

    Stündliche Wetter Chiredzi

    Heute, 19 Dezember, Mittwoch

    Zeit Temperatur Niederschläge Wind Luftdruck Luftfeuchtigkeit
    00:00 +29°C° 0 mm 2 m/S 723 mmHg 54%
    01:00 +28°C° 0 mm 2 m/S 723 mmHg 58%
    02:00 +27°C° 0 mm 2 m/S 723 mmHg 64%
    03:00 +27°C° 0 mm 2 m/S 723 mmHg 66%
    04:00 +26°C° 0 mm 1 m/S 723 mmHg 69%
    05:00 +26°C° 0 mm 1 m/S 723 mmHg 71%
    06:00 +28°C° 0 mm 2 m/S 723 mmHg 63%
    07:00 +31°C° 0 mm 2 m/S 724 mmHg 54%
    08:00 +35°C° 0 mm 2 m/S 724 mmHg 45%
    09:00 +37°C° 0 mm 2 m/S 724 mmHg 37%
    10:00 +39°C° 0 mm 2 m/S 724 mmHg 29%
    11:00 +42°C° 0 mm 1 m/S 723 mmHg 21%
    12:00 +42°C° 0 mm 2 m/S 723 mmHg 20%
    13:00 +42°C° 0 mm 2 m/S 722 mmHg 18%
    14:00 +44°C° 0 mm 3 m/S 721 mmHg 16%
    15:00 +43°C° 0 mm 3 m/S 721 mmHg 16%
    16:00 +43°C° 0 mm 3 m/S 721 mmHg 16%
    17:00 +43°C° 0 mm 3 m/S 721 mmHg 16%
    18:00 +39°C° 0 mm 3 m/S 721 mmHg 20%
    19:00 +37°C° 0 mm 3 m/S 721 mmHg 24%
    20:00 +35°C° 0 mm 3 m/S 721 mmHg 27%
    21:00 +34°C° 0 mm 3 m/S 722 mmHg 36%
    22:00 +33°C° 0 mm 4 m/S 722 mmHg 46%
    23:00 +32°C° 0 mm 4 m/S 723 mmHg 55%

    Morgen, 20 Dezember, Donnerstag

    Zeit Temperatur Niederschläge Wind Luftdruck Luftfeuchtigkeit
    00:00 +30°C° 0 mm 3 m/S 722 mmHg 58%
    01:00 +29°C° 0 mm 3 m/S 722 mmHg 61%
    02:00 +28°C° 0 mm 2 m/S 722 mmHg 64%
    03:00 +28°C° 0 mm 2 m/S 722 mmHg 65%
    04:00 +27°C° 0 mm 2 m/S 722 mmHg 67%
    05:00 +27°C° 0 mm 1 m/S 722 mmHg 68%
    06:00 +29°C° 0 mm 2 m/S 723 mmHg 61%
    07:00 +32°C° 0 mm 2 m/S 723 mmHg 53%
    08:00 +35°C° 0 mm 2 m/S 724 mmHg 46%
    09:00 +37°C° 0 mm 3 m/S 724 mmHg 40%
    10:00 +40°C° 0 mm 4 m/S 724 mmHg 34%
    11:00 +42°C° 0 mm 4 m/S 724 mmHg 28%
    12:00 +42°C° 0 mm 5 m/S 724 mmHg 27%
    13:00 +42°C° 0 mm 5 m/S 723 mmHg 26%
    14:00 +42°C° 0 mm 6 m/S 723 mmHg 26%
    15:00 +41°C° 0 mm 6 m/S 723 mmHg 29%
    16:00 +40°C° 0 mm 6 m/S 722 mmHg 32%
    17:00 +39°C° 0 mm 5 m/S 722 mmHg 35%
    18:00 +37°C° 0 mm 5 m/S 723 mmHg 39%
    19:00 +35°C° 0 mm 5 m/S 723 mmHg 43%
    20:00 +34°C° 0 mm 4 m/S 724 mmHg 47%
    21:00 +32°C° 0.2 mm 5 m/S 725 mmHg 56%
    22:00 +30°C° 0.2 mm 5 m/S 725 mmHg 65%
    23:00 +28°C° 0.2 mm 5 m/S 726 mmHg 74%

    übermorgen, 21 Dezember, Freitag

    Zeit Temperatur Niederschläge Wind Luftdruck Luftfeuchtigkeit
    00:00 +27°C° 0.4 mm 5 m/S 726 mmHg 77%
    01:00 +27°C° 0.4 mm 5 m/S 726 mmHg 81%
    02:00 +26°C° 0.4 mm 4 m/S 726 mmHg 84%
    03:00 +26°C° 0 mm 4 m/S 726 mmHg 85%
    04:00 +26°C° 0 mm 4 m/S 726 mmHg 85%
    05:00 +26°C° 0 mm 4 m/S 726 mmHg 86%
    06:00 +26°C° 0.1 mm 4 m/S 726 mmHg 83%
    07:00 +27°C° 0.1 mm 5 m/S 727 mmHg 80%
    08:00 +27°C° 0.1 mm 5 m/S 727 mmHg 77%
    09:00 +28°C° 0.4 mm 5 m/S 727 mmHg 72%
    10:00 +29°C° 0.4 mm 5 m/S 727 mmHg 67%
    11:00 +30°C° 0.4 mm 5 m/S 727 mmHg 63%
    12:00 +32°C° 0.1 mm 5 m/S 727 mmHg 60%
    13:00 +33°C° 0.1 mm 5 m/S 726 mmHg 56%
    14:00 +33°C° 0.1 mm 5 m/S 725 mmHg 53%
    15:00 +33°C° 0 mm 5 m/S 725 mmHg 53%
    16:00 +33°C° 0 mm 5 m/S 725 mmHg 53%
    17:00 +33°C° 0 mm 5 m/S 724 mmHg 53%
    18:00 +32°C° 0 mm 4 m/S 725 mmHg 57%
    19:00 +29°C° 0 mm 3 m/S 725 mmHg 62%
    20:00 +28°C° 0 mm 3 m/S 725 mmHg 67%
    21:00 +28°C° 0 mm 3 m/S 726 mmHg 69%
    22:00 +27°C° 0 mm 3 m/S 726 mmHg 72%
    23:00 +27°C° 0 mm 3 m/S 726 mmHg 75%

    22 Dezember, Samstag

    Zeit Temperatur Niederschläge Wind Luftdruck Luftfeuchtigkeit
    00:00 +26°C° 0.1 mm 3 m/S 726 mmHg 79%
    01:00 +26°C° 0.1 mm 3 m/S 725 mmHg 83%
    02:00 +25°C° 0.1 mm 3 m/S 725 mmHg 87%
    03:00 +25°C° 0.1 mm 3 m/S 726 mmHg 88%
    04:00 +24°C° 0.1 mm 2 m/S 726 mmHg 90%
    05:00 +24°C° 0.1 mm 2 m/S 726 mmHg 92%
    06:00 +25°C° 0.1 mm 2 m/S 726 mmHg 88%
    07:00 +26°C° 0.1 mm 3 m/S 726 mmHg 85%
    08:00 +26°C° 0.1 mm 3 m/S 727 mmHg 81%
    09:00 +27°C° 0.1 mm 3 m/S 726 mmHg 76%
    10:00 +28°C° 0.1 mm 3 m/S 726 mmHg 71%
    11:00 +29°C° 0.1 mm 3 m/S 726 mmHg 66%
    12:00 +31°C° 0 mm 3 m/S 725 mmHg 60%
    13:00 +33°C° 0 mm 3 m/S 724 mmHg 53%
    14:00 +35°C° 0 mm 3 m/S 723 mmHg 47%
    15:00 +35°C° 0 mm 3 m/S 723 mmHg 45%
    16:00 +35°C° 0 mm 3 m/S 723 mmHg 44%
    17:00 +35°C° 0 mm 3 m/S 723 mmHg 42%
    18:00 +34°C° 0 mm 3 m/S 723 mmHg 48%
    19:00 +31°C° 0 mm 2 m/S 723 mmHg 53%
    20:00 +29°C° 0 mm 2 m/S 723 mmHg 59%
    21:00 +28°C° 0 mm 2 m/S 723 mmHg 63%
    22:00 +28°C° 0 mm 2 m/S 723 mmHg 66%
    23:00 +27°C° 0 mm 2 m/S 724 mmHg 70%

    23 Dezember, Sonntag

    Zeit Temperatur Niederschläge Wind Luftdruck Luftfeuchtigkeit
    00:00 +26°C° 0 mm 2 m/S 723 mmHg 74%
    01:00 +26°C° 0 mm 2 m/S 723 mmHg 78%
    02:00 +25°C° 0 mm 2 m/S 723 mmHg 82%
    03:00 +24°C° 0 mm 2 m/S 723 mmHg 85%
    04:00 +24°C° 0 mm 2 m/S 724 mmHg 88%
    05:00 +24°C° 0 mm 2 m/S 724 mmHg 91%
    06:00 +26°C° 0 mm 2 m/S 725 mmHg 82%
    07:00 +27°C° 0 mm 2 m/S 725 mmHg 74%
    08:00 +29°C° 0 mm 2 m/S 726 mmHg 66%
    09:00 +31°C° 0 mm 3 m/S 726 mmHg 57%
    10:00 +34°C° 0 mm 3 m/S 725 mmHg 49%
    11:00 +36°C° 0 mm 3 m/S 725 mmHg 40%
    12:00 +37°C° 0 mm 4 m/S 724 mmHg 39%
    13:00 +37°C° 0 mm 4 m/S 724 mmHg 38%
    14:00 +39°C° 0 mm 5 m/S 723 mmHg 37%
    15:00 +37°C° 0 mm 5 m/S 723 mmHg 39%
    16:00 +36°C° 0 mm 5 m/S 723 mmHg 41%
    17:00 +36°C° 0 mm 5 m/S 723 mmHg 43%
    18:00 +34°C° 0 mm 5 m/S 723 mmHg 47%
    19:00 +33°C° 0 mm 4 m/S 724 mmHg 51%
    20:00 +30°C° 0 mm 4 m/S 724 mmHg 55%
    21:00 +29°C° 0 mm 4 m/S 724 mmHg 58%
    22:00 +29°C° 0 mm 3 m/S 724 mmHg 60%
    23:00 +28°C° 0 mm 3 m/S 725 mmHg 63%

    24 Dezember, Montag

    Zeit Temperatur Niederschläge Wind Luftdruck Luftfeuchtigkeit
    00:00 +27°C° 0 mm 3 m/S 725 mmHg 66%
    01:00 +26°C° 0 mm 3 m/S 724 mmHg 69%
    02:00 +26°C° 0 mm 3 m/S 724 mmHg 72%
    03:00 +25°C° 0 mm 3 m/S 724 mmHg 75%
    04:00 +25°C° 0 mm 3 m/S 725 mmHg 79%
    05:00 +24°C° 0 mm 3 m/S 725 mmHg 82%
    06:00 +26°C° 0 mm 3 m/S 725 mmHg 76%
    07:00 +27°C° 0 mm 3 m/S 726 mmHg 70%
    08:00 +29°C° 0 mm 3 m/S 726 mmHg 63%
    09:00 +31°C° 0 mm 3 m/S 726 mmHg 56%
    10:00 +33°C° 0 mm 3 m/S 726 mmHg 49%
    11:00 +35°C° 0 mm 3 m/S 725 mmHg 42%
    12:00 +36°C° 0 mm 3 m/S 724 mmHg 39%
    13:00 +37°C° 0 mm 3 m/S 724 mmHg 37%
    14:00 +38°C° 0 mm 3 m/S 723 mmHg 34%
    15:00 +38°C° 0 mm 3 m/S 723 mmHg 34%
    16:00 +37°C° 0 mm 3 m/S 722 mmHg 34%
    17:00 +37°C° 0 mm 4 m/S 722 mmHg 34%
    18:00 +35°C° 0 mm 3 m/S 722 mmHg 38%
    19:00 +33°C° 0 mm 3 m/S 723 mmHg 42%
    20:00 +31°C° 0 mm 2 m/S 723 mmHg 46%
    21:00 +30°C° 0 mm 2 m/S 723 mmHg 48%
    22:00 +29°C° 0 mm 2 m/S 723 mmHg 51%
    23:00 +28°C° 0 mm 2 m/S 723 mmHg 53%
    Mehr zeigen